When you browse on this site, cookies collect data to enhance your experience and personalize the content and advertising you see.
Visit our Privacy Policy to learn more. By continuing to use the site, you agree to this use of cookies and data.
  • In Hungary
  • List of Countries
  • For 7 days
  • Water Temperature
  • Weather Map
  • News
  • Weather Widgets
  • user-avatar
    Login

    Hourly Weather Pseytuk

    Today, 21 October, Monday

    Time Temperature Precipitation Wind Pressure Humidity
    00:00 +17°C° 0 mm 2 mps 764 mmHg 67%
    01:00 +16°C° 0 mm 2 mps 764 mmHg 69%
    02:00 +15°C° 0 mm 2 mps 764 mmHg 72%
    03:00 +15°C° 0 mm 2 mps 764 mmHg 75%
    04:00 +14°C° 0 mm 2 mps 765 mmHg 75%
    05:00 +14°C° 0 mm 2 mps 765 mmHg 76%
    06:00 +13°C° 0 mm 2 mps 765 mmHg 76%
    07:00 +14°C° 0 mm 2 mps 765 mmHg 71%
    08:00 +15°C° 0 mm 2 mps 765 mmHg 66%
    09:00 +17°C° 0 mm 3 mps 765 mmHg 60%
    10:00 +18°C° 0 mm 3 mps 765 mmHg 55%
    11:00 +20°C° 0 mm 3 mps 765 mmHg 50%
    12:00 +21°C° 0 mm 3 mps 765 mmHg 44%
    13:00 +22°C° 0 mm 4 mps 765 mmHg 42%
    14:00 +23°C° 0 mm 4 mps 765 mmHg 39%
    15:00 +25°C° 0 mm 4 mps 764 mmHg 36%
    16:00 +22°C° 0 mm 4 mps 764 mmHg 39%
    17:00 +21°C° 0 mm 4 mps 764 mmHg 42%
    18:00 +19°C° 0 mm 3 mps 764 mmHg 44%
    19:00 +19°C° 0 mm 4 mps 764 mmHg 49%
    20:00 +18°C° 0 mm 4 mps 764 mmHg 53%
    21:00 +17°C° 0 mm 4 mps 764 mmHg 57%
    22:00 +16°C° 0 mm 3 mps 764 mmHg 62%
    23:00 +14°C° 0 mm 3 mps 764 mmHg 66%

    Tomorrow, 22 October, Tuesday

    Time Temperature Precipitation Wind Pressure Humidity
    00:00 +14°C° 0 mm 3 mps 764 mmHg 70%
    01:00 +13°C° 0 mm 3 mps 764 mmHg 72%
    02:00 +14°C° 0 mm 2 mps 764 mmHg 74%
    03:00 +13°C° 0 mm 2 mps 764 mmHg 75%
    04:00 +13°C° 0 mm 2 mps 764 mmHg 77%
    05:00 +12°C° 0 mm 2 mps 765 mmHg 78%
    06:00 +12°C° 0 mm 2 mps 765 mmHg 79%
    07:00 +13°C° 0 mm 2 mps 765 mmHg 75%
    08:00 +13°C° 0 mm 3 mps 765 mmHg 71%
    09:00 +14°C° 0 mm 3 mps 765 mmHg 67%
    10:00 +17°C° 0 mm 3 mps 765 mmHg 61%
    11:00 +18°C° 0 mm 3 mps 765 mmHg 54%
    12:00 +20°C° 0 mm 3 mps 765 mmHg 48%
    13:00 +21°C° 0 mm 3 mps 765 mmHg 45%
    14:00 +22°C° 0 mm 3 mps 764 mmHg 42%
    15:00 +23°C° 0 mm 4 mps 764 mmHg 40%
    16:00 +21°C° 0 mm 3 mps 764 mmHg 43%
    17:00 +20°C° 0 mm 3 mps 764 mmHg 46%
    18:00 +18°C° 0 mm 3 mps 764 mmHg 50%
    19:00 +17°C° 0 mm 3 mps 764 mmHg 52%
    20:00 +17°C° 0 mm 3 mps 764 mmHg 55%
    21:00 +16°C° 0 mm 3 mps 764 mmHg 57%
    22:00 +14°C° 0 mm 3 mps 764 mmHg 60%
    23:00 +14°C° 0 mm 3 mps 764 mmHg 63%

    Day after tomorrow, 23 October, Wednesday

    Time Temperature Precipitation Wind Pressure Humidity
    00:00 +13°C° 0 mm 3 mps 764 mmHg 65%
    01:00 +14°C° 0 mm 2 mps 764 mmHg 68%
    02:00 +13°C° 0 mm 2 mps 764 mmHg 70%
    03:00 +13°C° 0 mm 2 mps 765 mmHg 72%
    04:00 +12°C° 0 mm 2 mps 764 mmHg 74%
    05:00 +12°C° 0 mm 2 mps 764 mmHg 75%
    06:00 +12°C° 0 mm 2 mps 764 mmHg 77%
    07:00 +13°C° 0 mm 2 mps 764 mmHg 73%
    08:00 +13°C° 0 mm 2 mps 765 mmHg 69%
    09:00 +14°C° 0 mm 2 mps 765 mmHg 65%
    10:00 +16°C° 0 mm 3 mps 764 mmHg 59%
    11:00 +18°C° 0 mm 3 mps 764 mmHg 54%
    12:00 +19°C° 0 mm 3 mps 764 mmHg 48%
    13:00 +20°C° 0 mm 3 mps 764 mmHg 46%
    14:00 +20°C° 0 mm 3 mps 764 mmHg 44%
    15:00 +21°C° 0 mm 4 mps 764 mmHg 42%
    16:00 +20°C° 0 mm 4 mps 764 mmHg 45%
    17:00 +18°C° 0 mm 3 mps 763 mmHg 48%
    18:00 +17°C° 0 mm 3 mps 763 mmHg 51%
    19:00 +16°C° 0 mm 3 mps 763 mmHg 52%
    20:00 +15°C° 0 mm 4 mps 763 mmHg 53%
    21:00 +14°C° 0 mm 4 mps 763 mmHg 53%
    22:00 +14°C° 0 mm 4 mps 763 mmHg 54%
    23:00 +13°C° 0 mm 3 mps 763 mmHg 55%

    24 October, Thursday

    Time Temperature Precipitation Wind Pressure Humidity
    00:00 +13°C° 0 mm 3 mps 763 mmHg 56%
    01:00 +12°C° 0.1 mm 3 mps 763 mmHg 58%
    02:00 +13°C° 0.1 mm 2 mps 763 mmHg 60%
    03:00 +13°C° 0.1 mm 2 mps 763 mmHg 62%
    04:00 +12°C° 0 mm 2 mps 763 mmHg 64%
    05:00 +10°C° 0 mm 2 mps 763 mmHg 66%
    06:00 +10°C° 0 mm 2 mps 763 mmHg 67%
    07:00 +12°C° 0 mm 2 mps 763 mmHg 64%
    08:00 +13°C° 0 mm 2 mps 763 mmHg 61%
    09:00 +13°C° 0 mm 3 mps 763 mmHg 57%
    10:00 +16°C° 0 mm 3 mps 763 mmHg 53%
    11:00 +18°C° 0 mm 3 mps 763 mmHg 49%
    12:00 +19°C° 0 mm 3 mps 763 mmHg 44%
    13:00 +20°C° 0 mm 3 mps 763 mmHg 43%
    14:00 +21°C° 0 mm 3 mps 762 mmHg 41%
    15:00 +22°C° 0 mm 3 mps 762 mmHg 40%
    16:00 +20°C° 0 mm 3 mps 762 mmHg 43%
    17:00 +19°C° 0 mm 3 mps 762 mmHg 47%
    18:00 +17°C° 0 mm 2 mps 762 mmHg 51%
    19:00 +16°C° 0 mm 3 mps 762 mmHg 52%
    20:00 +16°C° 0 mm 3 mps 762 mmHg 53%
    21:00 +14°C° 0 mm 3 mps 762 mmHg 54%
    22:00 +13°C° 0 mm 3 mps 762 mmHg 56%
    23:00 +14°C° 0 mm 2 mps 762 mmHg 58%

    25 October, Friday

    Time Temperature Precipitation Wind Pressure Humidity
    00:00 +13°C° 0 mm 2 mps 762 mmHg 60%
    01:00 +12°C° 0 mm 2 mps 762 mmHg 64%
    02:00 +12°C° 0 mm 2 mps 762 mmHg 68%
    03:00 +10°C° 0 mm 2 mps 762 mmHg 72%
    04:00 +10°C° 0 mm 2 mps 762 mmHg 74%
    05:00 +10°C° 0 mm 2 mps 762 mmHg 76%
    06:00 +10°C° 0 mm 1 mps 762 mmHg 78%
    07:00 +12°C° 0 mm 2 mps 762 mmHg 74%
    08:00 +13°C° 0 mm 2 mps 763 mmHg 70%
    09:00 +14°C° 0 mm 2 mps 763 mmHg 66%
    10:00 +16°C° 0 mm 2 mps 763 mmHg 60%
    11:00 +17°C° 0 mm 3 mps 763 mmHg 55%
    12:00 +19°C° 0 mm 3 mps 763 mmHg 49%
    13:00 +20°C° 0 mm 3 mps 763 mmHg 47%
    14:00 +21°C° 0 mm 3 mps 762 mmHg 46%
    15:00 +21°C° 0 mm 3 mps 762 mmHg 44%
    16:00 +20°C° 0 mm 3 mps 762 mmHg 49%
    17:00 +18°C° 0 mm 3 mps 762 mmHg 54%
    18:00 +17°C° 0 mm 3 mps 762 mmHg 58%
    19:00 +16°C° 0 mm 3 mps 762 mmHg 60%
    20:00 +16°C° 0 mm 3 mps 762 mmHg 61%
    21:00 +14°C° 0 mm 3 mps 763 mmHg 63%
    22:00 +14°C° 0 mm 3 mps 763 mmHg 64%
    23:00 +13°C° 0 mm 3 mps 763 mmHg 66%

    26 October, Saturday

    Time Temperature Precipitation Wind Pressure Humidity
    00:00 +13°C° 0 mm 2 mps 763 mmHg 68%
    01:00 +13°C° 0 mm 2 mps 763 mmHg 70%
    02:00 +13°C° 0 mm 2 mps 763 mmHg 73%
    03:00 +12°C° 0 mm 2 mps 763 mmHg 76%
    04:00 +12°C° 0 mm 2 mps 763 mmHg 78%
    05:00 +12°C° 0 mm 2 mps 763 mmHg 80%
    06:00 +10°C° 0 mm 2 mps 763 mmHg 82%
    07:00 +12°C° 0 mm 2 mps 763 mmHg 78%
    08:00 +13°C° 0 mm 2 mps 764 mmHg 74%
    09:00 +14°C° 0 mm 2 mps 764 mmHg 70%
    10:00 +16°C° 0 mm 3 mps 764 mmHg 64%
    11:00 +18°C° 0 mm 3 mps 764 mmHg 59%
    12:00 +20°C° 0 mm 3 mps 764 mmHg 54%
    13:00 +20°C° 0 mm 3 mps 763 mmHg 52%
    14:00 +21°C° 0 mm 3 mps 763 mmHg 50%
    15:00 +22°C° 0 mm 3 mps 763 mmHg 48%
    16:00 +20°C° 0 mm 3 mps 763 mmHg 53%
    17:00 +19°C° 0 mm 2 mps 763 mmHg 59%
    18:00 +17°C° 0 mm 2 mps 763 mmHg 64%
    19:00 +17°C° 0 mm 2 mps 763 mmHg 68%
    20:00 +16°C° 0 mm 2 mps 763 mmHg 72%
    21:00 +16°C° 0 mm 3 mps 763 mmHg 75%
    22:00 +15°C° 0 mm 2 mps 763 mmHg 79%
    23:00 +15°C° 0 mm 2 mps 763 mmHg 82%

    27 October, Sunday

    Time Temperature Precipitation Wind Pressure Humidity
    00:00 +14°C° 0 mm 2 mps 763 mmHg 85%
    01:00 +14°C° 0 mm 2 mps 763 mmHg 87%
    02:00 +13°C° 0 mm 2 mps 763 mmHg 88%
    03:00 +13°C° 0 mm 2 mps 763 mmHg 90%
    04:00 +12°C° 0 mm 2 mps 764 mmHg 90%
    05:00 +12°C° 0 mm 1 mps 764 mmHg 91%
    06:00 +12°C° 0 mm 1 mps 764 mmHg 91%
    07:00 +13°C° 0 mm 1 mps 764 mmHg 86%
    08:00 +14°C° 0 mm 2 mps 764 mmHg 81%
    09:00 +15°C° 0 mm 2 mps 764 mmHg 76%
    10:00 +16°C° 0 mm 2 mps 764 mmHg 69%
    11:00 +18°C° 0 mm 2 mps 764 mmHg 62%
    12:00 +20°C° 0 mm 3 mps 764 mmHg 55%
    13:00 +20°C° 0 mm 2 mps 763 mmHg 52%
    14:00 +21°C° 0 mm 2 mps 763 mmHg 49%
    15:00 +23°C° 0 mm 2 mps 763 mmHg 45%
    16:00 +20°C° 0 mm 2 mps 762 mmHg 50%
    17:00 +20°C° 0 mm 1 mps 762 mmHg 54%
    18:00 +18°C° 0 mm 1 mps 762 mmHg 59%
    19:00 +18°C° 0 mm 1 mps 762 mmHg 61%
    20:00 +16°C° 0 mm 1 mps 762 mmHg 63%
    21:00 +16°C° 0 mm 1 mps 762 mmHg 65%
    22:00 +15°C° 0 mm 1 mps 762 mmHg 67%
    23:00 +15°C° 0 mm 1 mps 762 mmHg 69%
    Show more